TimeEET,TemperatureF,Dew PointF,Humidity,Sea Level PressureIn,VisibilityMPH,Wind Direction,Wind SpeedMPH,Gust SpeedMPH,PrecipitationIn,Events,Conditions,WindDirDegrees,DateUTC
12:00 AM,73.4,46.4,38,29.92,-9999.0,South,2.3,-,N/A,,Clear,170,2013-10-08 22:00:00
1:00 AM,69.8,48.2,46,29.89,-9999.0,Calm,Calm,-,N/A,,Clear,0,2013-10-08 23:00:00
2:00 AM,68,43,29,29.90,6,Calm,Calm,,,,,,2013-10-09 00:00:00
2:00 AM,68.0,42.8,40,29.89,-9999.0,Calm,Calm,-,N/A,,Clear,0,2013-10-09 00:00:00
3:00 AM,66.2,37.4,35,29.92,-9999.0,Calm,Calm,-,N/A,,Clear,0,2013-10-09 01:00:00
4:00 AM,64.4,37.4,37,29.92,-9999.0,Calm,Calm,-,N/A,,Clear,0,2013-10-09 02:00:00
5:00 AM,64.4,42.8,45,29.89,-9999.0,Calm,Calm,-,N/A,,Clear,0,2013-10-09 03:00:00
6:00 AM,62.6,42.8,48,29.92,-9999.0,Calm,Calm,-,N/A,,Clear,0,2013-10-09 04:00:00
7:00 AM,66.2,48.2,52,29.92,-9999.0,Calm,Calm,-,N/A,,Clear,0,2013-10-09 05:00:00
8:00 AM,73,48,30,29.95,6,Calm,Calm,,,,,,2013-10-09 06:00:00
8:00 AM,73.4,48.2,41,29.95,-9999.0,Calm,Calm,-,N/A,,Clear,0,2013-10-09 06:00:00
9:00 AM,78.8,48.2,34,29.95,-9999.0,Calm,Calm,-,N/A,,Clear,0,2013-10-09 07:00:00
10:00 AM,82.4,48.2,30,29.95,-9999.0,Calm,Calm,-,N/A,,Clear,0,2013-10-09 08:00:00
11:00 AM,86.0,51.8,31,29.92,-9999.0,Calm,Calm,-,N/A,,Clear,0,2013-10-09 09:00:00
12:00 PM,89.6,57.2,33,29.92,-9999.0,NNW,2.3,-,N/A,,Clear,330,2013-10-09 10:00:00
2:00 PM,94,56,18,29.86,6,WNW,3.5,,,,,290,2013-10-09 12:00:00
2:00 PM,93.2,55.4,28,29.86,-9999.0,WNW,3.5,-,N/A,,Clear,290,2013-10-09 12:00:00
3:00 PM,95.0,57.2,28,29.86,-9999.0,WNW,2.3,-,N/A,,Clear,300,2013-10-09 13:00:00
4:00 PM,95.0,55.4,26,29.86,-9999.0,Calm,Calm,-,N/A,,Clear,0,2013-10-09 14:00:00
5:00 PM,91.4,53.6,28,29.86,-9999.0,Calm,Calm,-,N/A,,Clear,0,2013-10-09 15:00:00
6:00 PM,86.0,55.4,35,29.86,-9999.0,Calm,Calm,-,N/A,,Clear,0,2013-10-09 16:00:00
7:00 PM,80.6,60.8,51,29.89,3.7,WNW,2.3,-,N/A,,Unknown,290,2013-10-09 17:00:00
8:00 PM,81,56,32,29.89,4,Calm,Calm,,,,Haze,,2013-10-09 18:00:00
8:00 PM,80.6,55.4,42,29.89,3.7,Calm,Calm,-,N/A,,Unknown,0,2013-10-09 18:00:00
9:00 PM,78.8,48.2,34,29.92,3.7,Calm,Calm,-,N/A,,Unknown,0,2013-10-09 19:00:00
10:00 PM,77.0,44.6,32,29.92,5.0,SSE,3.5,-,N/A,,Unknown,160,2013-10-09 20:00:00
11:00 PM,75.2,44.6,34,29.92,-9999.0,SSE,3.5,-,N/A,,Clear,150,2013-10-09 21:00:00